SCP
4 4 4 4 3 2 2 2 2 2 1 1 1 1 1 1 1 1 1 1 2 2 2 1 1 1 1 1 1 1 1 1 1 1 1 1 0 0 0 0 0 0 0
5 5 5 4 4 3 3 3 2 2 1 1 1 1 1 1 1 1 1 2 2 2 2 2 2 2 1 1 1 1 1 1 1 1 1 1 0 0 0 0 0 0 0
6 6 6 6 6 5 4 3 3 2 2 1 1 1 1 1 1 1 1 1 2 2 2 2 2 2 2 2 2 1 1 1 1 1 1 1 0 0 0 0 0 0 0
6 6 6 7 6 5 3 3 2 2 2 2 2 1 1 1 1 1 1 1 2 2 2 2 1 1 2 2 1 1 1 1 1 0 1 1 0 0 0 0 0 0 0
6 5 5 5 4 3 3 3 3 2 2 2 2 2 1 1 1 1 1 1 1 2 2 1 1 1 1 1 1 1 1 1 0 0 0 0 1 1 1 0 0 0 0
5 5 4 4 3 3 3 3 3 3 3 3 2 2 2 1 1 1 1 1 1 2 2 2 1 1 1 1 1 1 1 1 0 0 0 1 1 1 1 1 0 0 0
5 5 4 4 4 4 4 4 4 4 4 4 3 2 2 2 2 1 1 2 2 2 2 2 1 1 1 1 1 1 1 1 0 0 0 1 1 1 1 1 1 0 0
6 5 5 4 5 4 5 6 6 5 5 5 4 2 2 2 2 2 2 2 2 2 2 2 2 2 2 2 2 1 1 1 0 0 1 1 1 1 1 1 1 1 0
6 5 3 3 4 4 5 7 8 7 6 6 4 3 2 2 3 3 3 3 3 3 2 2 2 3 3 3 2 2 1 1 1 1 1 1 1 1 2 1 1 1 1
6 4 2 2 3 4 6 9 10 8 8 7 5 3 3 4 4 4 3 3 3 3 3 3 3 3 4 4 3 2 2 1 1 1 1 1 1 2 2 2 1 1 1
6 4 2 2 2 3 6 9 11 10 9 8 6 6 7 7 6 4 3 2 3 3 4 4 4 4 5 5 4 3 2 2 2 1 1 1 2 2 2 2 2 1 1
5 4 3 3 3 3 6 9 11 10 9 8 7 8 10 10 8 5 3 3 3 3 4 5 6 6 5 5 5 4 3 3 2 2 2 2 2 3 3 3 2 1 1
4 4 4 4 3 3 5 8 10 10 9 9 9 8 9 9 7 5 4 3 3 3 4 5 6 6 6 5 5 4 4 4 3 3 3 3 3 4 4 3 3 2 2
4 5 5 5 4 4 5 7 8 9 10 10 9 8 8 8 6 4 3 3 3 3 4 5 5 5 5 4 4 5 5 4 3 3 4 4 5 5 5 5 4 3 2
6 6 6 5 4 4 5 5 7 9 11 11 10 10 10 9 6 4 3 2 2 2 3 3 3 3 4 4 4 4 4 4 3 4 4 5 6 6 6 6 5 3 2
7 6 5 5 4 5 5 6 8 11 13 13 12 11 11 9 7 5 4 3 3 2 3 3 3 3 3 3 3 3 3 3 4 4 5 5 6 6 5 5 4 3 2
6 5 4 4 4 5 6 9 13 16 17 15 14 13 12 10 8 6 5 4 3 3 3 3 3 3 2 2 2 3 3 4 4 4 5 5 5 5 4 3 2 1 1
5 5 5 6 6 6 8 12 17 20 20 18 15 14 12 10 8 6 5 5 4 3 3 3 3 3 3 3 3 4 4 4 4 4 5 4 4 4 3 2 1 1 1
5 5 8 11 11 10 11 14 18 20 20 19 16 14 12 10 8 7 5 5 5 4 4 4 4 4 3 3 3 4 5 4 3 3 3 3 2 2 1 1 1 1 1
5 7 12 16 15 14 14 14 15 17 18 16 14 13 11 10 8 7 7 6 6 6 6 5 5 4 4 3 2 3 3 3 2 2 1 1 1 0 0 0 1 1 1
5 8 15 18 16 14 14 14 13 14 14 13 12 11 11 11 9 9 9 9 8 8 7 6 5 5 4 3 1 1 1 2 2 1 1 0 0 0 0 0 0 1 1
5 8 15 19 18 15 13 13 12 12 12 11 10 10 11 12 11 11 12 12 10 9 8 7 6 5 4 3 1 0 1 1 1 1 0 0 0 0 0 0 0 0 1
5 8 14 20 19 16 13 12 12 11 10 8 8 9 10 11 11 11 12 12 11 11 10 8 7 6 5 3 2 1 0 0 0 0 0 0 0 0 0 0 0 1 1
5 7 13 19 19 16 13 12 11 10 8 7 7 9 10 10 9 9 9 10 11 11 10 9 7 6 6 5 3 2 1 1 1 0 0 0 0 0 0 0 0 1 1
7 9 14 17 16 14 13 12 11 10 8 7 7 8 8 7 6 5 6 7 8 9 8 7 7 6 6 5 4 3 2 1 1 1 1 1 1 0 0 0 0 1 1
9 11 14 15 15 14 12 11 10 10 9 8 7 7 6 5 4 4 4 5 6 6 6 6 6 6 5 4 3 2 2 1 1 1 1 1 1 1 1 1 1 1 1
Wind_Speed
8 9 10 10 9 7 7 7 6 6 4 3 3 2 2 2 2 2 3 3 3 3 3 2 1 1 1 1 1 1 0 1 1 1 1 2 1 1 2 2 2 3 4
8 9 9 9 9 8 8 8 7 6 5 4 3 3 2 2 2 2 2 3 3 2 2 2 1 1 1 1 1 1 1 1 0 1 1 2 3 2 1 1 2 2 2
12 11 10 9 9 8 8 8 7 6 5 4 2 1 1 1 0 1 1 2 2 2 2 2 2 2 2 1 1 1 2 0 1 1 2 2 2 2 2 1 1 1 1
10 10 11 11 11 10 9 7 7 6 5 5 4 4 3 3 3 2 2 2 2 2 2 3 3 2 2 2 1 1 1 2 0 1 0 2 3 2 1 2 1 1 2
12 12 13 13 12 11 9 8 7 6 6 5 5 5 3 3 2 1 2 1 1 2 2 2 2 2 2 2 1 1 1 1 1 1 1 0 0 1 2 2 2 2 1
12 12 12 10 9 9 9 9 8 8 7 6 6 6 5 4 3 2 2 1 1 1 1 2 2 2 2 2 2 1 1 1 1 1 1 1 1 1 2 2 2 1 2
11 12 11 10 10 10 10 9 10 9 7 7 7 6 6 5 5 4 3 3 2 2 2 2 2 2 2 2 2 1 1 1 1 1 1 1 2 2 2 2 1 1 1
9 11 11 11 10 10 10 10 10 9 8 8 7 6 6 5 4 4 4 4 3 3 3 3 2 2 2 2 1 1 1 1 1 1 1 1 1 1 2 2 2 0 1
7 9 10 9 10 10 10 11 10 9 9 8 6 5 6 5 5 4 4 3 3 3 3 3 3 2 2 2 2 1 1 1 1 1 1 0 1 0 1 1 3 3 1
4 5 5 7 8 8 8 9 10 10 9 8 7 6 6 6 5 4 4 3 3 3 3 3 3 2 2 2 2 1 1 1 1 1 0 0 0 0 0 1 1 2 3
5 4 3 4 6 6 7 8 9 9 8 8 7 6 6 5 5 4 4 4 3 3 3 3 3 3 2 2 2 2 1 1 1 0 0 0 0 0 0 0 1 1 2
5 4 3 2 4 5 6 7 8 9 9 8 7 6 6 5 5 5 5 4 4 3 3 3 3 3 3 3 4 3 2 2 1 1 1 1 0 0 0 0 0 1 1
4 3 3 2 3 4 5 5 6 8 8 7 7 6 6 6 6 5 5 5 4 4 3 3 3 3 3 3 3 4 3 3 3 2 2 1 1 0 0 0 0 0 0
4 3 3 2 2 3 4 4 4 5 6 7 7 7 7 7 7 6 5 5 5 5 4 4 4 4 3 4 4 4 3 3 3 3 2 2 2 2 1 0 0 0 1
3 3 3 3 2 2 2 3 4 4 5 6 7 7 7 6 5 5 5 4 4 5 4 4 4 4 4 4 4 4 4 3 2 2 2 2 2 2 2 1 1 1 1
4 4 4 4 3 3 3 3 3 4 4 6 6 5 5 5 5 5 4 4 4 4 3 4 4 4 4 4 5 4 3 3 3 2 2 1 1 1 1 1 1 2 2
5 5 5 4 4 3 3 3 3 3 4 5 5 5 5 5 5 5 4 4 4 4 4 3 3 4 4 4 4 4 4 3 3 2 2 1 1 1 0 1 1 1 1
4 4 5 4 3 2 2 2 3 3 3 4 4 5 5 5 4 4 4 4 4 4 4 4 3 3 3 3 4 4 3 3 2 2 2 2 1 1 1 1 1 1 2
5 5 5 5 4 3 3 3 2 2 3 3 4 4 5 5 5 5 5 4 4 4 3 3 3 3 3 4 5 5 3 2 2 2 2 3 2 2 2 2 1 1 3
4 4 4 4 4 3 3 4 3 2 2 3 3 4 4 5 6 6 5 4 4 4 3 3 3 4 3 3 5 6 3 3 2 1 1 3 3 2 2 2 2 2 3
4 5 5 4 4 4 4 3 2 3 3 2 1 2 3 4 5 4 3 3 3 3 3 3 2 3 3 3 5 6 4 4 3 2 1 1 3 2 2 2 3 4 3
4 4 4 3 3 4 4 3 2 3 2 2 1 2 3 3 3 3 3 3 4 4 3 3 2 2 2 3 5 6 6 5 4 3 3 2 4 3 3 2 2 2 1
3 4 4 3 2 2 4 4 3 2 1 1 1 2 2 2 2 3 3 3 3 3 3 3 3 3 2 2 4 5 6 5 3 3 4 4 4 3 2 2 1 1 1
3 4 4 4 2 1 2 3 2 2 2 1 2 2 2 1 1 1 2 3 3 3 3 3 4 3 2 2 2 2 2 3 2 2 2 2 2 1 1 1 1 1 2
3 4 5 4 3 2 2 2 2 3 2 2 2 1 1 1 0 0 1 2 3 5 6 5 4 4 4 5 7 5 4 4 3 3 1 1 1 0 0 0 1 1 1
3 3 3 3 3 2 2 2 2 3 3 2 1 1 1 1 1 1 1 2 1 2 4 5 5 4 5 6 7 7 6 6 6 4 2 2 2 2 2 2 1 1 2
Wind_Direction
171 171 172 168 163 164 163 166 166 171 160 156 158 161 187 196 201 205 198 192 192 184 165 175 185 151 144 188 171 151 187 242 176 89 347 334 314 257 228 206 193 200 209
170 172 172 168 167 169 174 173 173 171 172 171 170 171 174 191 190 192 189 188 183 182 169 162 176 162 151 139 92 113 125 275 133 132 92 358 343 329 277 225 189 201 202
178 174 172 171 170 176 180 179 176 172 175 168 150 136 88 52 58 187 200 206 180 173 158 166 170 172 157 174 189 146 140 175 295 163 145 146 234 303 323 301 257 199 205
178 176 175 175 179 186 180 175 173 172 174 165 161 165 171 188 209 203 195 199 188 179 167 168 170 173 164 178 200 140 143 143 214 296 224 181 174 167 309 321 306 241 216
180 180 182 182 182 182 179 178 171 175 179 172 172 172 180 195 195 179 174 189 203 194 180 168 160 163 169 177 171 139 145 152 173 205 239 267 157 154 168 265 305 323 287
186 183 184 179 181 182 180 177 174 182 182 177 176 178 181 181 173 184 185 201 219 226 205 180 169 172 176 179 185 170 157 164 178 188 180 172 176 196 176 203 243 276 289
186 182 181 181 182 181 183 184 182 187 187 182 184 185 186 180 186 192 189 187 198 215 222 198 184 184 189 185 175 166 175 189 186 204 213 201 204 190 175 169 210 253 289
183 181 183 185 185 183 183 182 184 189 189 189 191 189 184 185 190 187 181 187 199 208 204 189 184 187 183 181 164 162 201 191 210 230 218 212 235 186 170 169 156 129 318
172 177 179 179 182 183 185 183 182 186 187 187 184 188 189 186 185 187 186 190 199 201 189 184 186 189 178 169 158 168 210 175 206 238 205 202 267 259 170 159 155 155 199
153 165 170 177 183 183 182 180 181 186 186 184 187 190 194 191 185 182 187 189 191 193 186 185 190 190 188 179 164 167 189 146 217 216 119 144 254 11 49 128 146 156 164
150 135 152 179 176 179 178 179 184 184 184 187 189 189 189 186 179 183 196 191 184 184 187 187 185 183 190 181 167 187 180 180 219 245 134 238 190 94 357 84 117 131 142
143 137 140 154 166 172 177 182 188 188 189 186 183 187 188 181 183 187 197 195 191 193 186 176 173 178 182 182 181 197 194 190 204 213 166 258 285 23 334 67 110 163 164
136 131 135 150 161 165 172 179 183 188 186 178 182 187 189 187 190 190 192 192 189 191 188 174 177 188 189 189 193 193 195 199 209 206 199 228 182 252 291 1 196 265 92
148 145 152 164 176 177 167 172 181 182 180 178 183 190 195 197 191 189 191 193 189 188 192 192 194 196 194 194 196 195 196 199 211 207 204 208 189 201 214 200 200 137 38
149 162 160 159 169 165 161 167 177 179 178 177 186 198 198 190 185 187 191 194 194 195 193 194 203 204 201 201 192 197 193 192 198 206 212 211 195 191 184 172 177 158 164
174 172 166 156 161 174 172 168 179 184 175 177 188 191 181 178 183 189 188 189 199 202 197 201 205 211 221 212 201 193 189 187 190 202 216 224 209 167 114 91 152 177 180
174 165 156 160 167 177 175 169 181 177 168 175 182 182 178 180 186 185 183 194 203 200 202 206 198 208 220 205 198 190 174 181 191 191 192 205 175 150 105 40 29 8 292
171 165 156 156 156 151 139 157 152 159 167 179 183 186 179 189 192 186 194 202 199 199 203 206 201 204 223 203 194 183 166 164 175 180 176 175 184 181 155 125 54 347 317
170 164 161 157 148 145 142 120 126 147 164 185 200 195 188 190 193 200 205 201 192 200 204 197 182 189 220 200 181 161 148 155 175 188 181 173 178 185 145 132 144 319 313
147 144 140 136 142 155 141 127 134 141 174 205 216 209 194 195 200 205 204 199 190 192 185 183 188 191 209 200 183 166 154 159 178 208 206 186 180 178 161 166 182 248 282
143 139 139 144 160 158 138 138 152 187 208 209 219 219 206 201 202 198 192 181 178 175 172 180 199 191 195 199 184 173 163 170 176 193 224 228 188 178 192 184 198 226 239
141 144 139 148 159 150 141 148 204 219 190 172 192 229 232 221 202 184 185 176 171 177 182 181 199 212 202 191 183 173 176 169 171 200 218 221 202 202 201 199 228 244 220
160 153 145 144 160 160 155 170 222 215 146 131 230 238 235 230 195 184 188 187 185 185 194 191 197 215 214 209 198 187 187 178 178 200 204 206 201 201 210 220 228 213 142
157 149 144 150 184 199 174 192 209 183 151 172 250 250 225 228 226 201 195 194 196 196 199 201 204 208 202 203 201 196 192 180 178 191 197 186 179 180 197 215 203 187 185
165 156 158 167 185 188 197 203 188 166 173 202 224 240 216 194 224 283 248 219 220 209 196 201 196 192 210 217 200 185 187 184 185 162 131 114 105 147 258 267 255 231 191
149 147 155 163 177 175 189 209 187 165 169 201 229 234 232 217 202 199 333 348 299 242 205 193 187 206 211 196 188 189 183 175 163 143 157 184 190 200 208 212 227 231 221